Temp
95 95 95 98 96 94 89 84 84 87 86 87 87 89 89 91 92 94 93 92 90 89 87 91 85 88 88 89 89 89 86 87 89 88 89 91 92 92 94 96 96 93 92
92 92 92 93 94 94 89 85 83 86 84 87 88 90 91 92 92 93 92 91 90 89 89 87 88 86 81 81 86 84 87 87 89 85 86 83 87 92 93 93 94 95 97
90 90 91 91 95 93 91 83 85 85 85 86 89 88 91 91 90 91 90 89 90 89 88 88 88 84 82 82 80 76 74 86 88 86 86 82 82 87 85 87 92 92 95
92 90 90 90 93 93 94 84 82 84 84 86 87 84 86 86 90 90 92 91 89 89 88 87 87 85 87 82 83 81 78 79 80 86 88 86 86 82 82 89 83 76 91
91 90 89 90 92 95 94 88 87 85 84 82 84 87 85 90 92 92 88 87 88 88 89 87 86 85 87 86 84 83 81 83 78 77 78 81 83 82 80 74 80 85 91
91 90 90 91 90 93 94 89 83 84 84 83 82 81 83 86 89 89 91 91 91 89 87 89 86 86 86 85 86 84 82 82 82 82 81 80 78 78 80 79 82 82 88
91 89 88 88 89 89 88 91 87 84 84 83 83 82 81 81 82 83 89 89 91 91 87 85 86 87 86 86 85 82 81 83 82 81 83 80 80 83 81 75 78 82 88
91 90 89 89 89 89 89 88 87 86 84 83 82 81 81 82 80 81 89 91 90 93 90 86 87 87 87 86 85 85 85 83 83 82 83 87 86 84 84 83 83 81 86
89 90 90 90 89 89 89 88 87 84 85 84 82 81 80 80 79 82 81 81 85 86 87 90 87 87 87 86 85 85 83 83 83 82 82 84 89 90 86 87 87 83 75
89 90 90 89 90 91 91 91 90 87 86 85 85 82 81 81 79 79 81 81 82 79 78 77 88 86 86 85 84 85 84 82 85 86 81 81 80 83 85 85 85 82 79
88 89 90 91 91 92 92 91 90 88 86 87 85 84 84 83 81 74 79 80 82 80 73 78 80 85 85 85 83 84 86 83 82 84 83 82 82 84 84 85 84 81 76
86 87 87 88 88 88 87 88 87 86 86 86 83 81 80 83 82 80 80 81 80 81 76 73 74 73 80 84 83 84 86 84 82 83 83 84 86 81 81 81 80 81 78
82 83 83 82 83 83 83 82 85 86 87 84 82 81 79 78 80 81 82 80 80 81 79 77 70 74 77 82 84 83 84 85 85 83 83 84 83 80 80 79 79 80 79
80 80 79 78 79 79 79 81 80 80 79 82 78 76 80 77 79 80 81 81 82 82 81 79 77 74 76 82 83 83 83 83 85 86 86 87 84 82 81 80 79 79 81
78 77 76 74 74 76 76 77 76 76 77 77 76 76 78 78 80 80 81 82 81 82 82 81 82 78 77 80 82 82 82 82 84 85 87 87 84 78 80 83 79 78 78
76 77 75 71 69 68 70 71 70 72 74 75 75 78 78 75 76 77 78 80 80 81 82 82 82 81 83 71 67 74 79 80 81 81 84 85 78 77 70 69 70 75 76
76 73 69 67 67 61 62 62 64 65 70 74 74 73 75 75 76 77 78 78 78 80 79 80 80 79 81 65 64 67 81 81 80 80 80 81 87 78 84 70 68 68 68
73 72 69 69 67 60 61 63 64 65 66 69 72 72 71 73 77 77 78 78 78 77 76 79 80 79 81 62 61 63 77 78 79 79 80 79 79 81 79 81 81 81 82
73 72 71 69 66 61 62 63 65 65 65 64 67 68 67 68 72 71 72 74 74 75 77 78 77 77 78 59 58 65 78 78 76 77 77 77 75 63 61 78 78 75 74
74 71 71 69 66 66 63 68 65 64 63 62 64 64 65 67 71 71 74 75 75 74 74 75 76 69 75 59 56 64 79 76 75 73 72 63 67 60 59 72 70 72 69
73 72 69 63 62 67 66 68 66 61 63 68 68 68 68 67 69 75 74 76 73 72 71 70 68 69 65 65 54 56 76 74 72 70 67 67 58 55 55 58 67 66 66
73 71 66 62 61 65 65 64 66 67 71 72 73 73 73 74 71 72 71 73 69 69 69 67 66 64 63 55 54 53 57 64 68 68 69 65 56 53 52 57 57 55 58
73 71 65 61 61 62 64 65 67 69 71 73 73 74 74 74 75 75 75 75 71 70 72 70 69 71 72 67 52 53 56 58 71 66 59 54 51 51 56 52 54 53 69
72 68 67 62 63 64 69 68 69 70 73 73 74 75 76 72 75 76 77 80 78 78 79 76 71 76 75 75 75 74 72 58 68 61 64 59 59 59 64 62 60 64 65
70 67 64 66 66 69 68 70 70 71 72 74 76 76 80 78 79 75 73 76 65 62 76 74 78 77 75 67 53 62 75 75 63 65 76 75 75 74 75 75 75 74 72
67 67 67 69 73 75 70 70 70 72 72 75 78 78 81 82 81 80 76 51 51 47 46 45 60 67 51 46 46 45 46 46 47 71 78 77 78 78 77 76 76 76 72
MSLP
1004.33 1004.74 1004.75 1004.72 1005.52 1006.32 1007.14 1008.13 1008.89 1009.41 1010.38 1010.77 1010.73 1010.65 1010.63 1010.96 1011.26 1011.33 1011.67 1012.16 1012.96 1013.64 1014.25 1013.94 1014.33 1014.79 1014.81 1014.90 1015.27 1015.79 1016.28 1016.36 1016.25 1016.11 1015.89 1015.60 1015.92 1015.96 1015.71 1015.34 1015.20 1015.41 1015.72
1004.57 1005.00 1005.25 1005.37 1005.46 1005.57 1006.61 1007.69 1008.62 1009.08 1010.04 1010.25 1010.21 1010.19 1010.15 1010.29 1010.77 1010.99 1011.23 1011.88 1012.52 1013.02 1013.40 1013.91 1013.75 1014.51 1015.09 1015.30 1015.21 1015.69 1015.86 1016.10 1016.03 1015.93 1015.52 1015.22 1015.23 1015.07 1015.23 1015.37 1015.17 1014.87 1014.75
1004.70 1005.16 1005.35 1005.32 1004.85 1004.94 1005.63 1007.03 1008.03 1008.73 1009.16 1009.57 1009.83 1010.06 1009.86 1010.00 1010.09 1010.34 1010.92 1011.62 1011.98 1012.45 1012.92 1013.23 1013.50 1013.85 1014.53 1014.86 1015.17 1015.91 1016.22 1015.28 1015.28 1015.71 1015.24 1014.74 1014.35 1013.84 1014.06 1014.56 1014.58 1014.46 1014.27
1004.71 1005.24 1005.39 1005.38 1004.93 1004.77 1005.16 1006.88 1007.53 1008.21 1008.70 1009.14 1008.80 1008.91 1008.96 1008.87 1009.10 1009.56 1009.80 1010.36 1011.06 1011.53 1012.11 1012.67 1012.98 1013.60 1013.83 1014.16 1014.69 1015.23 1015.51 1015.44 1015.07 1014.80 1015.14 1014.88 1014.98 1014.69 1014.38 1014.52 1014.92 1013.86 1014.33
1004.81 1005.24 1005.64 1005.76 1005.57 1005.12 1005.26 1006.57 1007.05 1007.47 1007.99 1008.51 1008.52 1008.40 1008.47 1008.37 1008.41 1008.68 1009.09 1009.72 1010.25 1010.74 1011.01 1011.53 1012.32 1012.81 1013.33 1013.28 1013.72 1014.21 1014.60 1014.65 1014.96 1014.91 1015.02 1015.11 1015.14 1015.61 1015.63 1015.12 1014.63 1014.28 1014.05
1004.86 1005.49 1005.80 1005.92 1006.00 1005.91 1005.60 1006.43 1006.87 1007.07 1007.57 1008.04 1008.38 1008.23 1007.96 1008.06 1007.87 1007.99 1008.17 1008.64 1009.24 1009.83 1010.38 1010.67 1011.27 1011.79 1012.16 1012.53 1012.88 1013.40 1013.87 1014.13 1014.13 1014.35 1014.75 1014.75 1014.87 1014.87 1014.95 1014.90 1014.56 1014.32 1013.84
1004.71 1005.44 1005.69 1005.83 1005.93 1006.09 1006.35 1006.02 1006.29 1006.62 1007.01 1007.27 1007.48 1007.85 1008.03 1008.14 1007.81 1007.78 1007.65 1007.52 1007.90 1008.32 1008.87 1009.81 1010.19 1010.66 1011.04 1011.43 1012.08 1012.57 1012.94 1013.21 1013.40 1013.67 1013.87 1014.31 1014.44 1014.42 1014.43 1014.82 1014.41 1013.84 1013.29
1004.66 1005.01 1005.43 1005.70 1005.83 1005.96 1006.08 1006.27 1006.33 1006.23 1006.53 1006.86 1007.00 1007.19 1007.50 1007.51 1007.58 1007.61 1007.05 1006.99 1006.99 1007.10 1007.73 1008.51 1009.12 1009.68 1010.16 1010.66 1011.11 1011.68 1012.09 1012.31 1012.58 1012.77 1013.08 1012.95 1012.92 1013.46 1013.71 1013.43 1013.33 1013.00 1012.36
1004.87 1004.87 1005.21 1005.48 1005.69 1005.63 1005.70 1005.84 1006.04 1006.29 1006.27 1006.25 1006.56 1006.63 1006.74 1006.96 1007.14 1007.10 1007.30 1007.30 1006.92 1006.57 1006.52 1007.15 1008.36 1008.67 1009.18 1009.73 1010.14 1010.63 1011.08 1011.55 1011.98 1012.18 1012.50 1012.55 1012.26 1012.17 1012.71 1012.74 1012.47 1012.36 1012.52
1004.87 1004.78 1004.87 1005.12 1005.26 1005.19 1005.10 1005.17 1005.24 1005.37 1005.69 1005.85 1005.79 1006.00 1006.07 1006.15 1006.44 1006.69 1006.52 1006.80 1006.67 1006.61 1006.55 1007.09 1007.42 1008.53 1008.61 1009.00 1009.30 1009.49 1010.15 1010.74 1011.01 1011.29 1011.82 1012.19 1012.26 1012.05 1012.43 1012.49 1012.43 1012.71 1012.75
1005.00 1005.04 1005.06 1005.03 1004.88 1004.63 1004.47 1004.46 1004.61 1004.74 1004.84 1004.92 1005.08 1005.31 1005.26 1005.40 1005.70 1005.95 1005.85 1005.70 1005.98 1006.69 1006.31 1007.04 1008.00 1007.97 1008.16 1008.53 1009.00 1008.70 1008.68 1009.52 1010.26 1010.60 1010.84 1011.38 1011.75 1011.82 1011.95 1012.16 1012.33 1012.37 1012.75
1005.84 1005.75 1005.59 1005.50 1005.26 1005.04 1004.85 1004.47 1004.38 1004.48 1004.50 1004.46 1004.52 1004.72 1004.84 1004.79 1004.68 1004.86 1004.92 1005.18 1005.38 1006.23 1005.97 1006.60 1007.75 1008.31 1008.20 1008.09 1008.65 1008.29 1007.96 1008.38 1009.19 1009.89 1010.26 1010.33 1010.78 1011.14 1011.39 1011.60 1011.70 1011.83 1012.26
1006.40 1006.40 1006.22 1006.03 1005.73 1005.44 1005.20 1005.00 1004.40 1003.88 1003.79 1004.01 1004.36 1004.25 1004.18 1004.33 1004.22 1004.14 1004.11 1004.50 1004.65 1005.06 1005.75 1006.31 1006.12 1005.34 1007.14 1007.72 1007.81 1007.91 1007.58 1007.68 1008.00 1008.80 1009.26 1009.52 1010.00 1010.29 1010.61 1011.00 1011.16 1011.27 1011.60
1006.78 1006.84 1006.78 1006.64 1006.23 1005.84 1005.47 1004.87 1004.44 1004.16 1004.26 1004.02 1003.96 1003.89 1003.58 1003.63 1003.67 1003.59 1003.60 1003.64 1003.50 1003.37 1004.67 1005.01 1004.58 1005.62 1006.44 1006.15 1006.89 1006.73 1006.88 1007.14 1007.27 1007.60 1007.98 1008.31 1008.98 1009.33 1009.78 1010.19 1010.53 1010.85 1010.85
1007.00 1007.29 1007.31 1007.43 1006.99 1006.21 1005.73 1005.32 1005.14 1005.01 1004.80 1004.35 1003.90 1003.64 1003.50 1003.21 1003.00 1003.02 1003.05 1003.01 1002.99 1002.94 1003.04 1003.26 1003.67 1004.30 1004.87 1003.47 1005.53 1005.84 1006.32 1006.68 1006.65 1006.81 1007.07 1007.42 1008.13 1008.21 1009.01 1009.39 1009.79 1010.29 1010.63
1007.12 1007.37 1007.84 1008.20 1008.15 1007.56 1006.86 1006.20 1006.03 1005.45 1004.88 1004.15 1003.76 1003.15 1002.96 1003.08 1002.91 1002.95 1002.96 1003.05 1002.81 1002.49 1002.54 1002.79 1003.18 1003.78 1004.03 1004.41 1005.20 1005.61 1005.97 1006.22 1006.33 1006.36 1006.46 1007.04 1007.10 1007.72 1008.15 1008.62 1009.16 1009.56 1009.81
1007.34 1008.09 1008.55 1008.79 1008.80 1008.57 1007.91 1007.30 1006.70 1006.24 1005.28 1004.32 1003.80 1003.22 1002.36 1002.61 1002.70 1002.95 1002.99 1002.98 1003.09 1002.89 1002.88 1003.18 1003.30 1003.65 1003.72 1004.28 1004.85 1005.17 1005.46 1005.71 1005.85 1006.08 1006.42 1006.77 1006.64 1007.05 1007.51 1008.14 1008.60 1009.14 1009.30
1008.16 1008.57 1008.94 1009.13 1009.22 1009.02 1008.28 1007.74 1007.06 1006.55 1005.85 1004.88 1004.13 1003.76 1003.32 1002.95 1002.74 1002.54 1002.49 1002.67 1002.75 1002.98 1003.16 1003.17 1003.39 1003.69 1003.88 1004.44 1004.83 1005.50 1005.50 1005.44 1005.38 1005.75 1005.94 1006.32 1006.46 1006.68 1007.20 1007.47 1007.82 1008.24 1008.59
1008.66 1008.96 1009.21 1009.20 1009.14 1008.97 1008.57 1007.79 1007.35 1006.79 1006.17 1005.62 1004.61 1004.55 1004.28 1001.38 1003.38 1003.05 1002.57 1002.73 1002.94 1002.89 1003.08 1003.31 1003.51 1003.66 1003.93 1004.65 1005.13 1005.47 1005.02 1005.00 1005.30 1005.49 1005.82 1005.92 1006.19 1006.93 1007.37 1007.39 1007.80 1008.13 1008.51
1008.71 1009.07 1009.40 1009.54 1009.28 1008.89 1008.52 1007.66 1007.51 1007.21 1006.50 1005.51 1005.52 1004.17 1003.81 1003.52 1003.15 1002.62 1002.46 1002.56 1002.71 1002.90 1003.17 1003.27 1003.54 1003.86 1004.10 1004.59 1004.96 1005.16 1004.75 1005.11 1005.51 1005.73 1006.08 1006.64 1006.78 1007.33 1007.91 1007.93 1008.16 1008.20 1008.46
1008.74 1009.21 1009.65 1009.84 1009.84 1009.12 1008.76 1007.89 1007.61 1007.26 1006.66 1005.80 1005.00 1004.35 1003.38 1002.99 1002.30 1002.31 1002.49 1002.54 1002.93 1003.03 1003.59 1004.08 1004.47 1004.58 1004.86 1004.77 1005.11 1005.05 1004.77 1005.10 1005.40 1005.68 1006.21 1007.00 1007.44 1007.82 1008.06 1008.23 1008.38 1008.46 1008.59
1008.68 1009.40 1009.77 1009.97 1009.88 1009.36 1008.93 1008.35 1007.62 1007.11 1006.30 1005.51 1004.81 1004.19 1003.73 1003.02 1003.07 1002.86 1002.85 1002.88 1003.13 1003.28 1003.90 1004.46 1004.58 1005.03 1005.28 1005.55 1005.43 1005.45 1005.49 1005.36 1005.61 1005.66 1006.24 1006.86 1007.29 1007.60 1008.01 1008.18 1008.20 1008.47 1008.69
1008.60 1009.29 1009.70 1009.73 1009.45 1009.28 1008.89 1008.26 1007.66 1006.99 1006.25 1005.53 1004.99 1004.52 1004.13 1003.85 1003.60 1003.21 1003.01 1002.90 1003.32 1003.57 1004.00 1004.35 1004.76 1005.09 1005.33 1005.80 1006.04 1005.71 1005.64 1005.74 1005.63 1006.39 1006.88 1007.19 1007.52 1007.72 1007.92 1008.10 1008.33 1008.36 1008.23
1008.63 1009.22 1009.36 1009.35 1009.15 1009.11 1008.52 1008.05 1007.72 1006.99 1006.11 1005.40 1004.93 1004.52 1004.10 1004.11 1003.83 1003.48 1003.57 1003.40 1003.79 1003.90 1003.78 1003.90 1004.22 1004.59 1005.21 1005.56 1005.35 1005.48 1005.47 1006.18 1006.24 1006.76 1007.11 1007.56 1007.61 1007.56 1007.38 1007.63 1007.62 1007.93 1008.09
1008.63 1009.04 1009.14 1008.90 1008.68 1008.46 1008.05 1007.77 1007.59 1007.31 1006.36 1005.52 1004.95 1004.50 1003.76 1003.91 1003.82 1004.51 1005.08 1004.96 1005.87 1006.10 1005.18 1005.34 1004.98 1004.91 1005.99 1007.16 1007.08 1006.07 1005.58 1005.60 1006.64 1006.59 1005.95 1006.43 1006.67 1006.43 1006.15 1006.12 1006.12 1006.53 1006.67
1008.64 1008.94 1008.92 1008.28 1007.86 1007.68 1008.09 1008.01 1007.93 1007.34 1006.70 1005.44 1004.88 1004.57 1003.80 1003.48 1003.75 1003.95 1005.03 1005.74 1005.99 1006.21 1006.16 1006.27 1006.10 1006.43 1007.05 1007.42 1007.27 1007.21 1006.95 1006.63 1006.69 1006.66 1005.50 1005.22 1005.38 1005.55 1005.42 1005.85 1006.09 1006.25 1006.32
Wind_Speed
11 10 5 4 14 15 13 11 12 14 13 13 14 12 13 11 11 10 11 11 12 14 11 11 7 9 9 10 8 7 8 9 8 8 8 7 9 10 9 10 9 8 9
10 9 7 2 8 15 15 15 14 15 15 13 11 12 11 12 12 11 10 10 13 12 13 13 10 12 7 8 6 7 9 9 9 9 8 8 9 11 12 10 10 11 9
10 9 8 7 7 12 17 16 16 15 17 17 12 10 10 9 12 12 12 14 14 13 13 13 12 11 9 9 9 6 8 11 10 12 8 6 8 6 5 9 10 8 8
10 9 9 10 10 2 12 15 14 16 16 18 16 16 14 14 13 13 13 13 17 16 15 14 13 11 12 12 11 10 11 12 7 5 10 11 7 3 4 3 1 9 5
10 9 9 9 10 5 10 14 17 17 17 18 19 14 16 13 12 12 14 14 14 16 18 16 15 14 12 11 12 13 12 11 9 6 4 6 7 6 7 6 6 5 7
8 8 7 6 7 7 5 9 9 13 15 16 19 20 16 16 13 14 12 12 13 14 17 17 16 15 14 13 13 13 13 12 10 8 8 7 7 9 9 9 9 10 10
7 7 7 7 6 5 5 7 11 12 14 16 18 19 20 17 18 13 13 14 13 13 16 18 16 15 15 14 13 12 14 14 13 12 10 9 10 8 7 5 8 10 11
9 7 6 7 6 6 5 6 8 10 10 13 15 15 18 14 13 16 14 13 12 13 15 19 18 17 16 15 13 12 13 13 13 15 13 11 9 10 11 11 11 11 12
10 9 7 9 8 8 7 7 8 9 10 10 9 12 14 16 14 17 15 12 13 9 12 18 18 18 18 16 15 12 13 13 13 12 13 12 12 7 8 9 10 8 8
12 12 11 10 10 11 10 10 10 10 10 11 10 10 11 14 13 13 17 16 17 14 8 8 16 17 16 17 16 14 14 13 13 11 12 12 10 9 10 8 9 8 9
14 14 14 14 14 15 14 12 11 11 11 11 11 12 11 11 13 12 14 18 16 14 9 9 17 15 17 17 17 17 14 16 14 14 13 13 13 9 9 10 9 8 7
15 15 15 15 15 16 17 16 13 12 13 12 8 10 9 11 12 13 15 16 15 14 15 18 11 10 16 16 18 18 16 16 15 15 15 14 12 14 11 7 11 10 9
13 14 15 16 16 16 15 16 17 16 14 10 13 12 10 11 13 13 11 12 11 14 13 15 20 18 22 17 16 16 16 16 15 15 15 14 12 12 9 10 10 10 9
12 14 14 17 18 16 18 16 15 10 11 13 13 14 13 11 13 13 13 12 12 12 10 10 10 13 20 18 16 14 14 15 15 15 15 14 14 13 12 10 10 9 9
12 14 15 17 18 16 15 16 14 13 13 13 14 14 13 11 10 11 11 9 10 10 7 7 6 7 11 8 12 13 14 14 15 14 14 14 16 15 14 10 9 10 10
11 13 16 16 16 18 16 13 11 12 13 11 12 14 14 8 9 8 7 6 7 5 6 8 9 11 9 10 12 10 11 14 14 13 13 15 9 10 10 13 12 10 10
13 14 13 13 14 11 12 10 8 10 12 11 10 12 11 11 10 9 7 7 8 8 7 8 8 9 9 8 9 7 12 12 13 13 12 12 12 12 14 13 10 9 6
9 9 9 10 11 9 10 9 7 8 11 11 12 12 6 9 9 9 6 6 7 8 7 8 7 8 8 9 6 5 9 11 13 13 12 12 12 10 11 11 13 13 11
6 6 7 8 9 8 10 7 9 10 10 10 13 12 7 6 3 4 1 4 6 7 8 7 9 9 7 9 9 7 7 9 8 7 6 9 6 5 0 9 11 6 6
6 6 8 9 10 11 9 9 8 11 12 12 10 11 7 7 9 5 4 4 5 6 5 5 5 3 8 8 10 8 6 8 7 6 5 1 4 6 7 5 6 7 5
4 4 5 6 10 9 9 10 8 7 8 10 6 7 4 5 6 3 2 3 5 7 8 7 5 4 3 4 7 8 6 3 4 4 5 4 8 11 9 5 3 3 2
3 3 4 5 6 9 6 8 10 10 10 9 9 9 10 10 7 7 5 5 4 7 8 6 6 6 5 7 4 6 2 2 4 3 4 4 8 8 8 6 4 5 3
4 5 4 1 3 6 8 7 8 10 10 8 8 9 7 7 7 6 3 6 6 6 6 4 5 6 6 6 6 8 9 9 6 5 6 8 7 7 6 9 8 4 5
5 1 3 3 6 4 5 7 10 11 10 8 7 6 4 5 6 6 8 8 10 5 3 6 7 9 6 6 6 7 8 7 7 9 7 5 5 6 4 5 5 5 6
3 3 4 5 5 5 5 8 9 10 10 6 6 6 3 4 2 7 7 7 7 6 9 9 10 5 9 5 6 10 7 6 6 4 6 7 7 7 7 7 6 8 7
2 0 4 9 3 2 4 2 5 8 9 8 3 5 4 5 5 3 7 9 8 6 9 9 11 8 11 8 8 8 6 5 7 5 2 3 1 2 2 2 2 4 2
Wind_Direction
66 61 18 230 185 197 195 182 200 183 189 202 203 207 207 201 214 215 209 181 189 194 201 229 189 194 231 223 189 199 232 215 245 230 250 237 220 245 247 238 234 223 217
73 57 51 78 274 205 186 179 195 193 188 211 207 213 210 205 209 212 200 207 199 203 197 218 204 187 218 264 213 210 217 221 217 227 238 229 224 227 223 235 258 248 245
59 53 44 10 310 239 194 178 195 203 192 208 212 210 225 221 201 212 194 203 214 203 211 204 234 180 197 211 213 195 236 234 207 206 245 218 241 242 196 205 226 258 243
69 54 31 22 358 54 188 177 187 202 207 206 213 207 211 208 215 211 205 198 199 203 204 214 207 234 207 199 199 198 207 245 238 206 213 264 337 283 260 299 318 257 234
50 45 45 19 13 18 163 186 199 206 212 211 227 212 220 218 215 217 214 203 194 205 210 203 212 209 224 219 213 201 203 215 229 216 217 242 239 240 260 267 262 247 243
40 43 25 39 17 15 340 183 209 221 220 219 223 234 226 226 224 210 212 210 214 196 213 212 204 213 213 219 211 218 212 212 217 218 210 217 201 211 214 238 262 287 280
39 17 2 9 10 7 345 298 205 227 233 234 228 227 235 236 233 236 219 214 211 215 197 208 210 208 211 216 213 212 225 210 210 209 210 218 230 220 217 221 248 252 250
349 352 356 344 348 329 309 268 282 280 241 247 247 240 233 232 231 232 231 220 228 210 211 197 206 211 215 210 208 215 223 220 218 217 220 228 210 198 215 222 227 245 255
326 324 342 330 326 311 303 281 266 269 270 272 257 252 240 236 236 239 233 239 242 241 215 190 203 207 210 213 207 213 211 223 218 223 223 226 238 233 216 242 249 245 266
316 321 325 312 308 294 282 269 262 252 255 269 261 253 251 241 239 234 241 236 236 241 257 277 202 210 214 215 211 211 210 222 228 219 218 223 241 228 227 241 239 248 248
328 327 320 314 308 306 300 287 277 269 262 253 238 256 254 250 243 233 236 238 239 238 213 254 263 219 216 218 221 217 218 206 218 231 230 222 230 235 229 228 237 232 221
327 324 327 321 318 314 307 297 285 279 273 266 284 228 239 248 247 244 236 243 241 231 215 204 243 275 256 225 224 221 221 216 220 220 230 225 221 224 237 238 236 231 223
317 324 321 318 308 304 295 292 285 269 268 254 257 253 236 234 243 249 247 244 242 246 233 224 177 210 240 237 223 223 224 231 217 222 224 225 225 235 224 223 234 223 220
325 320 330 326 321 313 304 293 285 299 309 295 269 258 252 226 233 242 242 245 257 263 237 234 233 197 232 223 227 224 225 227 228 223 221 220 220 226 222 225 223 238 233
325 335 338 338 323 308 304 299 299 296 293 285 275 264 266 259 241 228 229 233 236 247 255 270 257 238 239 247 230 230 232 230 232 238 222 218 228 210 210 215 213 217 222
321 330 338 338 341 339 329 332 336 324 311 299 292 279 252 205 208 186 181 203 233 238 256 253 253 243 227 208 208 218 238 240 234 232 229 236 204 217 191 202 221 215 220
343 343 349 341 347 341 338 343 342 333 336 324 323 305 223 197 190 198 198 209 209 224 225 242 239 253 251 156 174 193 236 241 238 234 235 231 225 219 218 216 229 228 227
345 342 358 347 343 332 333 332 339 346 349 341 345 344 285 224 196 186 192 216 217 210 220 226 230 239 242 154 156 147 237 246 244 240 232 230 235 221 218 224 213 221 221
342 337 353 344 335 330 320 315 358 353 351 349 353 339 304 339 192 241 205 215 234 226 224 232 237 239 234 156 160 189 232 254 250 245 250 233 211 122 346 218 216 213 228
312 357 10 355 346 350 317 342 12 351 351 351 326 314 351 246 207 200 191 194 216 225 227 217 230 262 260 179 163 192 238 235 238 229 156 223 109 148 207 212 200 218 239
295 44 26 18 339 341 338 343 1 341 300 290 272 292 329 334 2 38 113 106 97 99 104 89 78 78 3 69 174 194 237 229 244 190 145 135 159 165 172 180 176 197 28
135 105 55 8 336 337 319 337 353 329 328 331 339 356 353 14 23 32 50 64 109 97 99 97 74 49 51 21 92 156 167 339 207 145 154 150 189 190 196 203 220 247 256
134 148 125 188 289 309 322 336 339 332 333 333 349 355 5 12 352 2 26 121 127 117 124 127 121 118 126 94 88 86 83 49 91 68 82 125 149 161 187 225 226 220 230
181 208 233 209 251 287 344 333 351 338 321 345 352 352 17 347 4 335 8 43 27 6 129 145 137 134 124 127 146 138 129 125 132 146 142 174 210 229 197 171 194 214 222
177 251 337 262 223 267 338 357 352 335 320 334 336 322 53 33 95 65 36 52 59 25 24 9 48 25 90 69 39 37 43 35 41 306 167 183 198 198 200 199 214 202 193
185 125 325 284 42 130 140 324 326 331 329 317 31 357 341 51 59 93 113 64 77 69 59 44 38 63 82 98 71 60 50 33 9 254 220 153 169 217 144 206 250 279 282